Location: Gro� Glienicke
(52.4675°N, 13.1079°E)
Time: 08:37:06
(UTC+00:00)

NOSS 3-4 (A) - Pass Details

Date: 06 July 2020
Orbit: 892 x 1320 km, 63.4° (Epoch: 12 July)

Event Time Altitude Azimuth Distance (km) Brightness Sun altitude
Rises 21:20:04 0° 313° (NW) 3,771 8.0 -11.1°
Reaches altitude 10° 21:22:34 10° 312° (NW) 2,872 7.2 -11.2°
Maximum altitude 21:29:24 79° 228° (SW) 1,158 3.9 -11.7°
Enters shadow 21:36:04 14° 143° (SE) 2,841 5.3 -12.1°
